Location: ?
(35.2180°N, 139.6392°E)
Time: 21:10:15
(UTC+00:00)

S3M - Pass Details

Date: 05 August 2024
Orbit: 949 x 1003 km, 83.0° (Epoch: 17 September)

Event Time Altitude Azimuth Distance (km) Brightness Sun altitude
Rises 19:12:40 0° 200° (SSW) 3,679 6.6 -8.6°
Reaches altitude 10° 19:15:17 10° 205° (SSW) 2,726 5.9 -8.1°
Maximum altitude 19:21:17 49° 280° (W) 1,232 4.3 -7.0°
Drops below altitude 10° 19:27:16 10° 354° (N) 2,704 6.6 -5.9°
Sets 19:29:52 0° 0° (N) 3,647 7.4 -5.4°
